FW6968 Weather Reports


time (UTC)temp
C
wind
direction
speed
KPH
gust
KPH
rain 1hr
cm
rain 24hr
cm
rain mn
cm
humidity
%
barometer
mb
20260504151016 20 157 4.8 16.1 0.00 0.00 0.00 36 1014.5
20260504150516 20 253 3.2 11.3 0.00 0.00 0.00 40 1014.5
20260504141003 18 211 1.6 11.3 0.00 0.00 0.00 42 1014.6
20260504140503 18 209 4.8 11.3 0.00 0.00 0.00 42 1014.6
20260504130545 13 253 3.2 8.0 0.00 0.00 0.00 54 1015.0
20260504110526 9 247 0.0 1.6 0.00 0.00 0.00 66 1015.5
20260504100520 9 247 0.0 0.0 0.00 0.00 0.00 63 1015.3
20260504081515 10 247 0.0 1.6 0.00 0.00 0.00 59 1015.8
20260504081017 10 247 0.0 1.6 0.00 0.00 0.00 59 1015.8
20260504080515 10 247 0.0 3.2 0.00 0.00 0.00 59 1015.7
20260504050600 10 247 0.0 0.0 0.00 0.00 0.00 52 1016.4
20260504045602 10 247 0.0 0.0 0.00 0.00 0.00 51 1016.3
20260504045059 10 247 0.0 0.0 0.00 0.00 0.00 50 1016.3
20260504044619 10 247 0.0 0.0 0.00 0.00 0.00 51 1016.4
20260504044057 10 247 0.0 0.0 0.00 0.00 0.00 50 1016.3
20260504043556 10 247 0.0 0.0 0.00 0.00 0.00 50 1016.3
20260504043056 10 247 0.0 0.0 0.00 0.00 0.00 50 1016.3
20260504042556 10 247 0.0 0.0 0.00 0.00 0.00 50 1016.2
20260504042054 10 247 0.0 1.6 0.00 0.00 0.00 49 1016.2
20260504041554 10 247 0.0 1.6 0.00 0.00 0.00 48 1016.2
20260504041054 11 247 0.0 0.0 0.00 0.00 0.00 48 1016.2
20260504040554 11 247 0.0 0.0 0.00 0.00 0.00 48 1016.2
20260504040109 11 247 0.0 0.0 0.00 0.00 0.00 48 1016.1
20260504035557 10 247 0.0 3.2 0.00 0.00 0.00 48 1016.2
20260504035052 10 247 0.0 3.2 0.00 0.00 0.00 48 1016.2
20260504034555 10 247 0.0 1.6 0.00 0.00 0.00 48 1016.3
20260504034051 10 247 0.0 1.6 0.00 0.00 0.00 48 1016.3
20260504033553 10 247 0.0 1.6 0.00 0.00 0.00 48 1016.3
20260504033053 10 247 0.0 0.0 0.00 0.00 0.00 48 1016.3
20260504032551 10 247 0.0 3.2 0.00 0.00 0.00 49 1016.2
20260504032051 10 247 0.0 3.2 0.00 0.00 0.00 49 1016.2
20260504031551 10 247 0.0 1.6 0.00 0.00 0.00 50 1016.1
20260504031050 10 247 0.0 1.6 0.00 0.00 0.00 50 1016.0
20260504030550 10 247 0.0 1.6 0.00 0.00 0.00 51 1016.1
20260504030050 10 247 0.0 1.6 0.00 0.00 0.00 53 1016.1
20260504025552 10 247 0.0 1.6 0.00 0.00 0.00 53 1016.1
20260504025050 10 247 0.0 3.2 0.00 0.00 0.00 54 1016.0
20260504024550 10 247 0.0 1.6 0.00 0.00 0.00 55 1015.9
20260504024049 10 247 0.0 1.6 0.00 0.00 0.00 57 1015.9
20260504023549 10 247 0.0 0.0 0.00 0.00 0.00 58 1015.8
20260504023049 10 247 0.0 0.0 0.00 0.00 0.00 58 1015.8
20260504022550 10 247 0.0 0.0 0.00 0.00 0.00 59 1015.8
20260504022048 10 247 0.0 0.0 0.00 0.00 0.00 58 1015.8
20260504021550 10 247 0.0 0.0 0.00 0.00 0.00 57 1015.7
20260504021051 10 247 0.0 0.0 0.00 0.00 0.00 57 1015.7
20260504020551 10 247 0.0 0.0 0.00 0.00 0.00 56 1015.7
20260504020048 10 247 0.0 0.0 0.00 0.00 0.00 54 1015.6
20260504015548 10 247 0.0 0.0 0.00 0.00 0.00 54 1015.6
20260504015048 11 247 0.0 0.0 0.00 0.00 0.00 53 1015.5
20260504014548 11 247 0.0 0.0 0.00 0.00 0.00 51 1015.5
20260504014047 11 247 0.0 0.0 0.00 0.00 0.00 50 1015.5
20260504013547 11 247 0.0 0.0 0.00 0.00 0.00 51 1015.4
20260504013056 11 247 0.0 0.0 0.00 0.00 0.00 51 1015.3
20260504012547 11 247 0.0 0.0 0.00 0.00 0.00 49 1015.4
20260504012047 11 247 0.0 0.0 0.00 0.00 0.00 49 1015.3
20260504011547 11 247 0.0 0.0 0.00 0.00 0.00 49 1015.4
20260504011047 11 247 0.0 1.6 0.00 0.00 0.00 48 1015.4
20260504010546 12 247 0.0 1.6 0.00 0.00 0.00 47 1015.3
20260504010056 12 247 0.0 0.0 0.00 0.00 0.00 44 1015.3
20260504005546 12 247 0.0 0.0 0.00 0.00 0.00 43 1015.3
20260504005046 13 247 0.0 0.0 0.00 0.00 0.00 41 1015.3
20260504004552 13 247 0.0 0.0 0.00 0.00 0.00 40 1015.1
20260504004048 13 247 0.0 0.0 0.00 0.00 0.00 38 1015.1
20260504003544 13 247 0.0 0.0 0.00 0.00 0.00 38 1015.1
20260504003046 13 247 0.0 0.0 0.00 0.00 0.00 38 1015.1
20260504002544 14 247 0.0 0.0 0.00 0.00 0.00 37 1015.1
20260504002045 14 247 0.0 0.0 0.00 0.00 0.00 37 1015.1
20260504001546 14 247 0.0 1.6 0.00 0.00 0.00 36 1015.0
20260504001044 15 247 0.0 1.6 0.00 0.00 0.00 35 1015.0
20260504000544 15 247 0.0 0.0 0.00 0.00 0.00 35 1014.9
20260504000044 15 247 0.0 4.8 0.00 0.00 0.00 35 1014.8
20260503235543 15 247 0.0 6.4 0.00 0.00 0.00 34 1014.8
20260503235043 15 307 0.0 6.4 0.00 0.00 0.00 34 1014.8
20260503234543 15 252 0.0 1.6 0.00 0.00 0.00 34 1014.8
20260503234043 15 252 0.0 11.3 0.00 0.00 0.00 34 1014.7
20260503233543 15 252 3.2 11.3 0.00 0.00 0.00 32 1014.7
20260503233046 15 317 1.6 12.9 0.00 0.00 0.00 33 1014.6
20260503232542 16 227 4.8 12.9 0.00 0.00 0.00 32 1014.7
20260503232042 16 248 1.6 8.0 0.00 0.00 0.00 33 1014.6
20260503231542 16 327 1.6 12.9 0.00 0.00 0.00 34 1014.5
20260503231044 16 273 1.6 12.9 0.00 0.00 0.00 32 1014.5
20260503230545 16 234 3.2 12.9 0.00 0.00 0.00 31 1014.4
20260503230041 16 238 0.0 11.3 0.00 0.00 0.00 33 1014.4
20260503225540 16 343 1.6 12.9 0.00 0.00 0.00 32 1014.5
20260503225040 16 245 6.4 12.9 0.00 0.00 0.00 32 1014.5
20260503224540 16 244 1.6 16.1 0.00 0.00 0.00 31 1014.5
20260503224041 16 230 1.6 12.9 0.00 0.00 0.00 31 1014.5
20260503223540 16 236 3.2 14.5 0.00 0.00 0.00 32 1014.5
20260503223040 16 264 3.2 14.5 0.00 0.00 0.00 31 1014.6
20260503222538 16 301 4.8 16.1 0.00 0.00 0.00 31 1014.6
20260503222038 16 260 4.8 16.1 0.00 0.00 0.00 31 1014.5
20260503221538 16 247 4.8 20.9 0.00 0.00 0.00 31 1014.5
20260503221038 16 309 3.2 20.9 0.00 0.00 0.00 31 1014.6
20260503220538 16 242 8.0 20.9 0.00 0.00 0.00 31 1014.6
20260503220038 16 288 3.2 16.1 0.00 0.00 0.00 30 1014.5
20260503215537 16 239 1.6 16.1 0.00 0.00 0.00 32 1014.6
20260503215036 16 290 1.6 19.3 0.00 0.00 0.00 32 1014.6
20260503214536 16 318 1.6 19.3 0.00 0.00 0.00 31 1014.6
20260503214039 16 313 3.2 11.3 0.00 0.00 0.00 31 1014.6
20260503213536 16 24 1.6 9.7 0.00 0.00 0.00 33 1014.8
20260503213036 16 241 3.2 14.5 0.00 0.00 0.00 30 1014.7
20260503212536 16 231 4.8 16.1 0.00 0.00 0.00 31 1014.8
20260503212038 16 234 4.8 19.3 0.00 0.00 0.00 29 1014.8
20260503211535 16 251 8.0 19.3 0.00 0.00 0.00 29 1014.8
20260503211036 16 283 8.0 20.9 0.00 0.00 0.00 30 1014.8
20260503210535 17 232 6.4 24.1 0.00 0.00 0.00 31 1014.8
20260503210035 17 249 9.7 24.1 0.00 0.00 0.00 29 1014.7
20260503205535 17 258 3.2 19.3 0.00 0.00 0.00 31 1014.8
20260503205036 16 278 1.6 19.3 0.00 0.00 0.00 33 1014.9
20260503204534 16 312 6.4 19.3 0.00 0.00 0.00 31 1014.9
20260503204036 16 284 3.2 12.9 0.00 0.00 0.00 33 1014.9
20260503203533 17 22 0.0 11.3 0.00 0.00 0.00 33 1014.9
20260503203040 17 338 1.6 12.9 0.00 0.00 0.00 32 1014.9
20260503202533 17 296 6.4 16.1 0.00 0.00 0.00 32 1015.0
20260503202033 17 249 4.8 16.1 0.00 0.00 0.00 32 1015.1
20260503201533 17 217 1.6 14.5 0.00 0.00 0.00 31 1015.0
20260503201032 17 225 4.8 12.9 0.00 0.00 0.00 32 1015.2
20260503200533 17 261 4.8 19.3 0.00 0.00 0.00 31 1015.3
20260503200031 17 216 9.7 19.3 0.00 0.00 0.00 32 1015.5
20260503195530 16 290 4.8 19.3 0.00 0.00 0.00 35 1015.4
20260503195029 16 227 6.4 19.3 0.00 0.00 0.00 33 1015.6
20260503194533 16 246 6.4 19.3 0.00 0.00 0.00 35 1015.7
20260503194029 16 158 1.6 16.1 0.00 0.00 0.00 34 1015.7
20260503193529 16 275 8.0 17.7 0.00 0.00 0.00 34 1015.7
20260503193029 16 274 4.8 22.5 0.00 0.00 0.00 35 1015.8
20260503192527 16 232 6.4 17.7 0.00 0.00 0.00 35 1016.0
20260503192027 16 302 4.8 17.7 0.00 0.00 0.00 34 1015.9
20260503191535 16 205 6.4 17.7 0.00 0.00 0.00 33 1016.1
20260503191026 16 240 8.0 19.3 0.00 0.00 0.00 34 1016.2
20260503190524 16 298 4.8 16.1 0.00 0.00 0.00 35 1016.2
20260503190028 16 286 4.8 17.7 0.00 0.00 0.00 37 1016.3
20260503185523 16 242 3.2 19.3 0.00 0.00 0.00 34 1016.3
20260503185023 16 306 11.3 19.3 0.00 0.00 0.00 34 1016.3
20260503184522 16 248 4.8 22.5 0.00 0.00 0.00 34 1016.3
20260503184024 16 261 8.0 22.5 0.00 0.00 0.00 34 1016.4
20260503183521 16 344 1.6 17.7 0.00 0.00 0.00 37 1016.5
20260503183021 16 251 3.2 24.1 0.00 0.00 0.00 38 1016.5
20260503182521 16 273 9.7 24.1 0.00 0.00 0.00 37 1016.7
20260503182020 16 250 1.6 22.5 0.00 0.00 0.00 39 1016.8
20260503181521 16 202 9.7 22.5 0.00 0.00 0.00 38 1016.7
20260503181021 16 220 6.4 17.7 0.00 0.00 0.00 38 1016.6
20260503180521 16 267 6.4 19.3 0.00 0.00 0.00 36 1016.7
20260503180024 15 213 4.8 19.3 0.00 0.00 0.00 39 1016.8
20260503175518 15 227 4.8 17.7 0.00 0.00 0.00 38 1016.7
20260503175020 15 243 4.8 27.4 0.00 0.00 0.00 38 1017.0
20260503174518 15 277 14.5 27.4 0.00 0.00 0.00 36 1017.1
20260503174018 15 348 1.6 17.7 0.00 0.00 0.00 38 1017.0
20260503173521 15 268 4.8 17.7 0.00 0.00 0.00 40 1017.1
20260503173016 15 266 6.4 16.1 0.00 0.00 0.00 36 1017.1
20260503172515 15 296 8.0 16.1 0.00 0.00 0.00 40 1017.1
20260503172015 15 299 3.2 11.3 0.00 0.00 0.00 40 1017.0
20260503171515 15 249 3.2 19.3 0.00 0.00 0.00 38 1017.1
20260503171017 15 247 6.4 19.3 0.00 0.00 0.00 38 1017.2
20260503170514 15 263 9.7 24.1 0.00 0.00 0.00 38 1017.3